Regional Weather Roundup
Issued by NWS

Home | Current Version | Previous Version | Text Only | Print | Product List | Glossary Off
Versions: 1 2 3 4 5 6 7 8 9 10 11 12 13 14 15 16 17 18 19 20 21 22 23 24 25 26 27 28 29 30 31 32 33 34 35 36 37 38 39 40 41 42 43 44 45 46 47 48 49 50

385
ASUS44 KMEG 062300
RWRTN
TENNESSEE HOURLY STATE WEATHER ROUNDUP
NATIONAL WEATHER SERVICE MEMPHIS TN
600 PM CDT FRI MAY 06 2016

TNZ002-004-019-021-049-052-054-088>092-070000-
WEST TENNESSEE

CITY           SKY/WX    TMP DP  RH WIND       PRES   REMARKS
MEMPHIS INTL   SUNNY     74  43  32 N6        30.01F
NWS MEMPHIS      N/A     74 N/A N/A MISG        N/A
JACKSON        SUNNY     72  44  36 NW10      30.00F
DYERSBURG      SUNNY     72  43  35 N6        29.99F
UNION CITY     SUNNY     73  45  35 SE9       29.98F
LEXINGTON      SUNNY     70  41  35 NW7       29.99S
$$

TNZ008-025-027-028-033-062-065-066-070000-
NORTH MIDDLE TENNESSEE

CITY           SKY/WX    TMP DP  RH WIND       PRES   REMARKS
NASHVILLE      MOSUNNY   71  39  31 NW14G21   29.97S
CLARKSVILLE    SUNNY     70  42  36 NW10      29.96F
COOKEVILLE     MOSUNNY   68  43  40 NW9       29.94F
CROSSVILLE     MOSUNNY   64  38  38 NW10G20   29.95S
$$

TNZ061-075-076-078-094-096-097-070000-
SOUTH MIDDLE TENNESSEE

CITY           SKY/WX    TMP DP  RH WIND       PRES   REMARKS
TULLAHOMA      MOSUNNY   66  39  37 NW10      29.98S
WINCHESTER     MOSUNNY   66  39  37 N8        29.97S
MCMINNVILLE    SUNNY     66  45  45 NW10      29.96S
COLUMBIA       SUNNY     70  45  40 VRB6      29.96F
SHELBYVILLE    MOSUNNY   70  45  40 N8        29.98S
$$

TNZ017-018-042-046-047-070000-
NORTHEAST TENNESSEE

CITY           SKY/WX    TMP DP  RH WIND       PRES   REMARKS
TRI CITIES     PTSUNNY   63  38  39 NW8       29.86R
$$

TNZ012-013-036-069-073-074-070000-
CENTRAL EAST TENNESSEE

CITY           SKY/WX    TMP DP  RH WIND       PRES   REMARKS
KNOXVILLE      MOSUNNY   67  37  33 N8        29.89R
OAK RIDGE      MOSUNNY   69  40  34 VRB7      29.91R
GATLINBURG     CLEAR     64  39  39 N3        29.88S
$$

TNZ083-085-099-070000-
SOUTHEAST TENNESSEE

CITY           SKY/WX    TMP DP  RH WIND       PRES   REMARKS
CHATTANOOGA    MOSUNNY   71  40  32 NW12      29.92S
$$

SKY/WX REPORTED AS FAIR MEANS FEW OR NO CLOUDS BELOW
12 THOUSAND FEET.





USA.gov is the U.S. government's official web portal to all federal, state and local government web resources and services.